[[{"header":{"parameterUnit":"m.s-1","parameterCategory":1,"la1":30.2991,"la2":30.254,"lo1":-89.0895,"lo2":-89.0444,"dy":0.0017,"dx":0.0017,"nx":28,"ny":28,"refTime":"2024-05-10T09:00:00:Z","depth":0,"parameterNumber":2,"parameterNumberName":"U-component_of_WINDS"},"data":[0,0,0,0,0,0,0,0,0,0,0,0,0,0,0,0,0,0,0,0,0,0,0,0,0,0,0,0,0,0,0,0,0,0,0,0,0,0,0,0,0,0,0,0,0,0,0,0,0,0,0,0,0,0,0,0,0,0,-2.2709,-2.2707,0,-2.2521,-2.2519,-2.2517,-2.2426,-2.2426,-2.2426,-2.2427,-2.2225,-2.222,-2.2214,0,0,0,0,0,0,0,0,0,0,0,0,0,-2.2977,-2.2973,-2.2709,-2.2707,-2.2704,-2.2522,-2.2519,-2.2516,-2.2426,-2.2426,-2.2426,-2.2427,-2.2227,-2.222,-2.2214,0,0,0,0,0,0,0,0,0,0,0,0,0,-2.2832,-2.2972,-2.2709,-2.2637,-2.2629,-2.2522,-2.2519,-2.2516,-2.2426,-2.2426,-2.2427,-2.2427,-2.2229,-2.2221,-2.2213,-2.216,0,0,-2.2188,-2.2184,0,0,0,0,0,0,0,0,-2.2841,-2.2822,-2.265,-2.2642,-2.2633,-2.2497,-2.254,-2.2396,-2.2426,-2.2503,-2.2427,-2.2427,-2.2315,-2.23,-2.2264,-2.2151,-2.2142,-2.2187,-2.2182,-2.2179,-2.2176,0,0,0,0,0,0,0,-2.2851,-2.283,-2.2634,-2.2648,-2.2637,-2.2611,-2.259,-2.2512,-2.241,-2.2496,-2.2489,-2.2469,-2.231,-2.2272,-2.2258,-2.2139,-2.2187,-2.218,-2.2175,-2.2172,-2.1968,-2.1967,0,0,0,0,0,0,-2.2874,-2.2839,-2.264,-2.2629,-2.2739,-2.2606,-2.2583,-2.2541,-2.2411,-2.2391,-2.2469,-2.2465,-2.2286,-2.2268,-2.2251,-2.2178,-2.2179,-2.2171,-2.2166,-2.1968,-2.1968,-2.1967,0,0,0,0,0,0,-2.288,-2.2857,-2.2648,-2.2732,-2.2703,-2.2601,-2.2554,-2.2537,-2.2499,-2.239,-2.2371,-2.245,-2.2285,-2.2263,-2.2183,-2.2169,-2.2167,-2.216,-2.1969,-2.1968,-2.1967,-2.2033,0,0,0,0,0,0,-2.2888,-2.286,-2.2842,-2.2732,-2.2699,-2.2587,-2.2554,-2.2533,-2.2486,-2.248,-2.2367,-2.2348,-2.2284,-2.2196,-2.2175,-2.2158,-2.2154,-2.1969,-2.1968,-2.1967,-2.2031,-2.2034,-2.2037,0,0,0,0,0,-2.2898,-2.2867,-2.2842,-2.2818,-2.2675,-2.2586,-2.2567,-2.2496,-2.2486,-2.2464,-2.2394,-2.2352,-2.2175,-2.2188,-2.2164,-2.2145,-2.197,-2.1969,-2.1968,-2.203,-2.2034,-2.2037,0,0,0,0,0,0,-2.2974,-2.2851,-2.2822,-2.2755,-2.2682,-2.2571,-2.2542,-2.2502,-2.2429,-2.2425,-2.2337,-2.2312,-2.224,-2.2184,-2.2202,-2.2084,-2.2068,-2.2062,-2.2124,-2.2126,-2.2129,-2.2143,-2.2147,0,0,0,0,0,-2.2984,-2.2926,-2.282,-2.277,-2.2735,-2.2646,-2.2604,-2.2556,-2.2475,-2.2443,-2.2367,-2.2288,-2.2214,-2.2167,-2.2093,-2.2023,-2.1994,-2.1997,-2.2,-2.2003,-2.1998,-2.1952,-2.1951,-2.1963,-2.1963,-2.1963,0,0,-2.3002,-2.2927,-2.2895,-2.2783,-2.2721,-2.2659,-2.262,-2.2557,-2.2508,-2.2432,-2.2353,-2.2294,-2.2199,-2.2124,-2.2086,-2.2075,-2.1988,-2.2001,-2.2004,-2.1998,-2.1951,-2.195,-2.1949,-2.1962,-2.1962,-2.1962,0,0,-2.3002,-2.2942,-2.2893,-2.2832,-2.2739,-2.2679,-2.2667,-2.2562,-2.2521,-2.244,-2.2381,-2.232,-2.2196,-2.213,-2.208,-2.2053,-2.201,-2.2031,-2.2045,-2.2001,-2.2,-2.1999,-2.1986,-2.1983,-2.2027,-2.2027,-2.2027,0,-2.3035,-2.2943,-2.2872,-2.2811,-2.2761,-2.2693,-2.264,-2.2582,-2.2469,-2.2435,-2.2425,-2.2265,-2.2197,-2.2102,-2.2096,-2.2059,-2.2039,-2.2043,-2.2007,-2.2005,-2.2003,-2.1989,-2.1985,-2.203,-2.203,-2.2029,-2.2029,0,-2.2987,-2.2923,-2.2894,-2.2789,-2.2736,-2.2679,-2.2595,-2.2549,-2.2505,-2.2445,-2.2361,-2.2276,-2.2183,-2.2157,-2.2112,-2.2055,-2.205,-2.2025,-2.2006,-2.2006,-2.1991,-2.1986,-2.2034,-2.2033,-2.2032,-2.2032,0,0,-2.303,-2.2886,-2.2876,-2.2826,-2.2718,-2.2665,-2.2603,-2.2515,-2.2475,-2.2399,-2.2342,-2.2237,-2.2212,-2.2156,-2.2102,-2.2065,-2.2044,-2.2043,-2.2039,-2.2043,-2.1971,-2.1989,-2.1985,-2.2016,-2.2014,-2.2013,-2.1978,0,-2.3014,-2.2905,-2.2837,-2.2752,-2.269,-2.2623,-2.2568,-2.2493,-2.2435,-2.237,-2.2303,-2.223,-2.2204,-2.2169,-2.2129,-2.2056,-2.2028,-2.2057,-2.1957,-2.1955,-2.1982,-2.1978,-2.1998,-2.1969,-2.1972,-2.1971,-2.1971,0,-2.2981,-2.2908,-2.2819,-2.2715,-2.2686,-2.2639,-2.255,-2.2491,-2.2402,-2.2362,-2.2298,-2.2244,-2.2171,-2.216,-2.2055,-2.2077,-2.2032,-2.1989,-2.1986,-2.1972,-2.1962,-2.1962,-2.1958,-2.1953,-2.1962,-2.1962,-2.1963,0,-2.3019,-2.2898,-2.2828,-2.2788,-2.2666,-2.2633,-2.258,-2.2492,-2.2442,-2.2363,-2.2328,-2.2241,-2.2193,-2.2124,-2.2046,-2.2046,-2.1948,-2.1931,-2.1909,-2.1911,-2.189,-2.1892,-2.1877,-2.1865,-2.1865,-2.1866,-2.1866,0,-2.3006,-2.2953,-2.2843,-2.28,-2.2737,-2.2658,-2.2596,-2.2537,-2.2459,-2.2399,-2.2334,-2.2279,-2.2181,-2.2112,-2.205,-2.1971,-2.195,-2.1912,-2.1896,-2.1917,-2.1921,-2.1884,-2.1883,-2.1864,-2.1865,-2.1865,-2.1865,0,-2.3038,-2.2963,-2.2881,-2.2772,-2.2743,-2.2701,-2.2606,-2.2558,-2.2496,-2.2421,-2.2399,-2.2299,-2.2215,-2.2131,-2.2016,-2.1974,-2.1895,-2.1875,-2.1926,-2.1916,-2.1898,-2.19,-2.1857,-2.1845,-2.1844,-2.1844,-2.1845,0,-2.3034,-2.2992,-2.2879,-2.2836,-2.2785,-2.2717,-2.2666,-2.2584,-2.2533,-2.2427,-2.2392,-2.2303,-2.2228,-2.2094,-2.2009,-2.192,-2.1895,-2.1886,-2.1881,-2.1902,-2.1891,-2.1894,-2.1887,-2.1888,-2.1889,-2.1889,-2.1889,0,-2.3035,-2.2999,-2.293,-2.2847,-2.2788,-2.2717,-2.2644,-2.2611,-2.2515,-2.2459,-2.2374,-2.2315,-2.2198,-2.2109,-2.201,-2.1949,-2.1901,-2.1892,-2.1881,-2.1901,-2.1931,-2.1912,-2.193,-2.1893,-2.1892,-2.1892,-2.1892,-2.1892,-2.3046,-2.3005,-2.2918,-2.2842,-2.2779,-2.2711,-2.2661,-2.2593,-2.2521,-2.2422,-2.2377,-2.2289,-2.2197,-2.2059,-2.2,-2.1927,-2.1914,-2.19,-2.1896,-2.1893,-2.1896,-2.1945,-2.1908,-2.1908,-2.1908,-2.1908,-2.1908,0,-2.3041,-2.2982,-2.2913,-2.2814,-2.2752,-2.2716,-2.2632,-2.2582,-2.2507,-2.2427,-2.2355,-2.2253,-2.2166,-2.2074,-2.198,-2.1939,-2.1914,-2.1916,-2.1917,-2.1903,-2.1914,-2.1932,-2.1938,-2.1938,-2.1938,-2.1938,-2.1938,-2.1938,-2.3032,-2.2958,-2.2912,-2.2804,-2.2744,-2.2661,-2.2615,-2.2551,-2.2486,-2.2378,-2.2306,-2.2247,-2.216,-2.2059,-2.1975,-2.195,-2.1917,-2.1925,-2.1893,-2.1905,-2.1903,-2.1901,-2.1917,-2.1919,-2.1919,-2.1887,-2.1887,-2.1887]},{"header":{"parameterUnit":"m.s-1","parameterCategory":1,"la1":30.2991,"la2":30.254,"lo1":-89.0895,"lo2":-89.0444,"dy":0.0017,"dx":0.0017,"nx":28,"ny":28,"refTime":"2024-05-10T09:00:00:Z","depth":0,"parameterNumber":3,"parameterNumberName":"V-component_of_WINDS"},"data":[0,0,0,0,0,0,0,0,0,0,0,0,0,0,0,0,0,0,0,0,0,0,0,0,0,0,0,0,0,0,0,0,0,0,0,0,0,0,0,0,0,0,0,0,0,0,0,0,0,0,0,0,0,0,0,0,0,0,-1.9934,-1.9933,0,-1.9855,-1.9854,-1.9853,-1.9797,-1.9796,-1.9796,-1.9795,-1.971,-1.9708,-1.9706,0,0,0,0,0,0,0,0,0,0,0,0,0,-2.0029,-2.0028,-1.9934,-1.9933,-1.9932,-1.9855,-1.9854,-1.9853,-1.9797,-1.9796,-1.9795,-1.9795,-1.971,-1.9708,-1.9706,0,0,0,0,0,0,0,0,0,0,0,0,0,-1.9973,-2.0027,-1.9934,-1.9895,-1.989,-1.9856,-1.9854,-1.9853,-1.9797,-1.9796,-1.9795,-1.9795,-1.9711,-1.9708,-1.9706,-1.9703,0,0,-1.9697,-1.9696,0,0,0,0,0,0,0,0,-1.9976,-1.9969,-1.9902,-1.9897,-1.9893,-1.9835,-1.9856,-1.9802,-1.9797,-1.9832,-1.9795,-1.9794,-1.9752,-1.9746,-1.9732,-1.9699,-1.9695,-1.9697,-1.9695,-1.9694,-1.9693,0,0,0,0,0,0,0,-1.998,-1.9972,-1.9903,-1.9901,-1.9895,-1.9879,-1.987,-1.9846,-1.9797,-1.9829,-1.9825,-1.9816,-1.9749,-1.9735,-1.973,-1.9694,-1.9697,-1.9695,-1.9693,-1.9692,-1.9649,-1.9649,0,0,0,0,0,0,-1.9991,-1.9976,-1.9905,-1.99,-1.9934,-1.9878,-1.9868,-1.9854,-1.9797,-1.9787,-1.9817,-1.9814,-1.974,-1.9733,-1.9727,-1.9717,-1.9694,-1.9692,-1.969,-1.9648,-1.9649,-1.965,0,0,0,0,0,0,-1.9993,-1.9985,-1.9908,-1.9937,-1.9926,-1.9877,-1.9862,-1.9853,-1.9839,-1.9788,-1.9778,-1.9812,-1.9739,-1.973,-1.9708,-1.9713,-1.969,-1.9688,-1.9648,-1.9649,-1.9649,-1.9699,0,0,0,0,0,0,-1.9996,-1.9986,-1.9986,-1.9937,-1.9925,-1.9894,-1.9862,-1.9852,-1.9835,-1.983,-1.9781,-1.9772,-1.9738,-1.9713,-1.9706,-1.9709,-1.9686,-1.9647,-1.9648,-1.9649,-1.9696,-1.9701,-1.9705,0,0,0,0,0,-2.0,-2.0003,-1.9987,-1.9978,-1.9924,-1.9894,-1.9887,-1.9849,-1.9836,-1.9834,-1.98,-1.9773,-1.9714,-1.9711,-1.9702,-1.9705,-1.9647,-1.9648,-1.9649,-1.9694,-1.97,-1.9705,0,0,0,0,0,0,-2.0053,-1.9996,-1.9977,-1.9965,-1.9935,-1.9885,-1.9882,-1.9857,-1.9829,-1.9826,-1.9779,-1.9768,-1.975,-1.9725,-1.9723,-1.9696,-1.9676,-1.9676,-1.9714,-1.9719,-1.9723,-1.9729,-1.9683,0,0,0,0,0,-2.0064,-2.0046,-1.9996,-1.9991,-1.9976,-1.9932,-1.9918,-1.9891,-1.9857,-1.9844,-1.9809,-1.9776,-1.9749,-1.9732,-1.9705,-1.9692,-1.9679,-1.9689,-1.9693,-1.9697,-1.9697,-1.9685,-1.9688,-1.9653,-1.9653,-1.9653,0,0,-2.0085,-2.0051,-2.0043,-2.0,-1.9974,-1.9954,-1.9922,-1.9903,-1.9887,-1.9841,-1.9818,-1.9791,-1.975,-1.9731,-1.9722,-1.971,-1.9703,-1.9699,-1.9702,-1.97,-1.9686,-1.969,-1.9693,-1.9654,-1.9654,-1.9654,0,0,-2.0113,-2.0088,-2.0079,-2.0053,-2.0013,-1.9983,-1.9981,-1.9934,-1.9914,-1.9891,-1.9854,-1.9833,-1.9789,-1.9761,-1.9741,-1.9755,-1.9728,-1.9748,-1.977,-1.9759,-1.9761,-1.9763,-1.9766,-1.9768,-1.9748,-1.9748,-1.9748,0,-2.0144,-2.0116,-2.0077,-2.006,-2.0041,-1.9998,-1.9987,-1.9963,-1.9916,-1.9903,-1.9891,-1.9833,-1.9803,-1.9775,-1.9779,-1.9765,-1.9758,-1.9753,-1.9764,-1.9766,-1.9767,-1.977,-1.9771,-1.975,-1.975,-1.975,-1.975,0,-2.0155,-2.0135,-2.0132,-2.0089,-2.0069,-2.0056,-2.0012,-1.9996,-1.9971,-1.9941,-1.9915,-1.9877,-1.984,-1.9832,-1.9807,-1.98,-1.9794,-1.9774,-1.9752,-1.9774,-1.9775,-1.9776,-1.9754,-1.9753,-1.9752,-1.9752,0,0,-2.0216,-2.015,-2.015,-2.0128,-2.008,-2.0063,-2.0046,-2.0011,-1.9997,-1.9965,-1.9947,-1.991,-1.989,-1.9867,-1.9838,-1.9828,-1.9839,-1.9808,-1.9807,-1.9814,-1.9825,-1.984,-1.9842,-1.982,-1.982,-1.982,-1.9828,0,-2.0236,-2.0205,-2.0168,-2.0149,-2.0128,-2.0086,-2.007,-2.0038,-2.0009,-1.9985,-1.9952,-1.9925,-1.9902,-1.9888,-1.9876,-1.984,-1.984,-1.9839,-1.9801,-1.98,-1.9812,-1.9843,-1.9859,-1.9869,-1.9829,-1.9829,-1.9829,0,-2.0256,-2.0227,-2.0206,-2.0158,-2.0147,-2.0135,-2.0098,-2.0077,-2.0037,-2.0016,-1.999,-1.9958,-1.9934,-1.9915,-1.988,-1.988,-1.9861,-1.9841,-1.984,-1.9835,-1.9816,-1.9837,-1.9871,-1.9872,-1.9829,-1.9829,-1.9829,0,-2.03,-2.0256,-2.0237,-2.022,-2.0164,-2.0155,-2.0131,-2.0091,-2.0071,-2.0038,-2.0024,-1.9988,-1.9968,-1.994,-1.9898,-1.9889,-1.9865,-1.9844,-1.9845,-1.9846,-1.9842,-1.9843,-1.9873,-1.9832,-1.9832,-1.9832,-1.9832,0,-2.0326,-2.0315,-2.0256,-2.0245,-2.0229,-2.0185,-2.017,-2.0141,-2.0105,-2.0085,-2.0045,-2.0027,-1.9973,-1.9946,-1.9913,-1.9887,-1.9879,-1.9859,-1.985,-1.9862,-1.9864,-1.9849,-1.9847,-1.9832,-1.9832,-1.9832,-1.9832,0,-2.0374,-2.0335,-2.0311,-2.0259,-2.0245,-2.0236,-2.019,-2.0175,-2.0143,-2.0118,-2.0109,-2.0058,-2.0024,-1.998,-1.9932,-1.9909,-1.9887,-1.9874,-1.9901,-1.9895,-1.9898,-1.9898,-1.9919,-1.9918,-1.988,-1.988,-1.988,0,-2.0392,-2.0382,-2.0329,-2.0314,-2.0291,-2.0267,-2.0246,-2.0201,-2.0181,-2.0134,-2.0124,-2.0088,-2.0057,-2.0005,-1.9961,-1.9924,-1.9908,-1.9918,-1.9902,-1.9914,-1.9906,-1.9907,-1.9904,-1.9922,-1.9923,-1.9923,-1.9924,0,-2.0429,-2.041,-2.0383,-2.0349,-2.0326,-2.0297,-2.0265,-2.0254,-2.0202,-2.0181,-2.0147,-2.0123,-2.0074,-2.0037,-1.9993,-1.9965,-1.9934,-1.9929,-1.9926,-1.9938,-1.9954,-1.9944,-1.991,-1.9928,-1.9928,-1.9928,-1.9927,-1.9927,-2.0461,-2.045,-2.041,-2.0381,-2.0353,-2.0324,-2.0307,-2.0272,-2.0244,-2.0202,-2.0177,-2.0143,-2.01,-2.0038,-2.0011,-1.9981,-1.997,-1.9967,-1.9966,-1.9966,-1.9969,-1.9959,-1.9973,-1.9973,-1.9973,-1.9973,-1.9973,0,-2.0494,-2.0467,-2.0441,-2.0398,-2.0374,-2.035,-2.0312,-2.0293,-2.0265,-2.0229,-2.0199,-2.0158,-2.0121,-2.0075,-2.0034,-2.0019,-2.0004,-2.001,-2.001,-2.0003,-1.9983,-1.9988,-2.0023,-2.0023,-2.0023,-2.0023,-2.0023,-2.0023,-2.0509,-2.0487,-2.0463,-2.0425,-2.0396,-2.0365,-2.0346,-2.0317,-2.0288,-2.0245,-2.0215,-2.0186,-2.0143,-2.0099,-2.0063,-2.005,-2.0036,-2.0046,-2.0028,-2.001,-2.0005,-2.0001,-2.0006,-2.0044,-2.0044,-2.0051,-2.0051,-2.0051]}]]